Hourly Data Report for February 04, 2018

TORONTO CITY
ONTARIO

43°40'00.000" N
79°24'00.000" W
112.50 m
6158355
71508
XTO

Download Data

Hourly Data (February 2018)
Hourly Data Report for February 4, 2018
TIME
LST
Temp Definition
°C
Dew Point Definition
°C
Rel Hum Definition
%
Precip. Amount Definition
mm

Wind Dir Definition
10's deg

Wind Spd Definition
km/h
Visibility Definition
km
Stn Press Definition
kPa
Hmdx Definition


Wind Chill Definition


Weather Definition


00:00 -0.5 -4.5 74 0.0 LegendMM LegendMM   99.77     LegendNANA
01:00 0.2 -6.8 59 0.0 LegendMM LegendMM   99.76     LegendNANA
02:00 0.0 -8.4 53 0.0 LegendMM LegendMM   99.71     LegendNANA
03:00 0.2 -8.7 51 0.0 LegendMM LegendMM   99.68     LegendNANA
04:00 0.5 -7.4 56 0.0 LegendMM LegendMM   99.64     LegendNANA
05:00 -1.0 -3.5 83 0.0 LegendMM LegendMM   99.62     LegendNANA
06:00 -1.0 -2.5 89 0.2 LegendMM LegendMM   99.62     LegendNANA
07:00 -0.9 -2.1 91 0.2 LegendMM LegendMM   99.62     LegendNANA
08:00 -0.4 -1.4 93 0.7 LegendMM LegendMM   99.61     LegendNANA
09:00 -0.1 -1.2 92 0.8 LegendMM LegendMM   99.59     LegendNANA
10:00 0.3 -0.8 92 0.6 LegendMM LegendMM   99.56     LegendNANA
11:00 0.8 -0.3 92 0.6 LegendMM LegendMM   99.53     LegendNANA
12:00 1.2 -0.1 92 0.2 LegendMM LegendMM   99.44     LegendNANA
13:00 1.5 0.1 91 0.2 LegendMM LegendMM   99.32     LegendNANA
14:00 1.8 0.1 88 0.0 LegendMM LegendMM   99.25     LegendNANA
15:00 1.6 0.0 89 0.0 LegendMM LegendMM   99.21     LegendNANA
16:00 1.5 0.1 90 0.0 LegendMM LegendMM   99.22     LegendNANA
17:00 1.6 0.1 90 0.0 LegendMM LegendMM   99.20     LegendNANA
18:00 -1.3 -3.6 85 0.2 LegendMM LegendMM   99.23     LegendNANA
19:00 -3.9 -6.3 84 0.0 LegendMM LegendMM   99.32     LegendNANA
20:00 -5.6 -7.7 85 0.5 LegendMM LegendMM   99.37     LegendNANA
21:00 -6.6 -8.7 85 0.2 LegendMM LegendMM   99.42     LegendNANA
22:00 -7.3 -9.2 87 0.3 LegendMM LegendMM   99.50     LegendNANA
23:00 -8.0 -11.0 79 0.0 LegendMM LegendMM   99.59     LegendNANA

Notes on Data Quality.

Legend

  • E = Estimated
  • M = Missing
  • NA = Not Available*
  • [empty] = Indicates an unobserved value
Date modified: